Regional Weather Roundup
Issued by NWS

Home | Current Version | Previous Version | Graphics & Text | Print | Product List | Glossary On
Versions: 1 2 3 4 5 6 7 8 9 10 11 12 13 14 15 16 17 18 19 20 21 22 23 24 25 26 27 28 29 30 31 32 33 34 35 36 37 38 39 40 41 42 43 44 45 46 47 48 49 50
000
ASUS45 KCYS 170610
RWRWY

WYOMING REGIONAL WEATHER ROUNDUP
NATIONAL WEATHER SERVICE CHEYENNE WY
1200 AM MDT WED SEP 17 2014

NOTE:  "FAIR" INDICATES FEW OR NO CLOUDS BELOW 12,000 FEET
WITH NO SIGNIFICANT WEATHER AND/OR OBSTRUCTIONS TO VISIBILITY.

WYZ001-170700-
YELLOWSTONE NATIONAL PARK

CITY           SKY/WX    TMP DP  RH WIND       PRES   REMARKS
LK YELLOWSTONE   N/A     42  37  82 W3        30.26F
6HR MIN TEMP:  42; 6HR MAX TEMP:  67;

W YELLOWSTONE  NOT AVBL

$$
WYZ002>013-054>058-071-098>099-170700-
NORTHERN WYOMING

CITY           SKY/WX    TMP DP  RH WIND       PRES   REMARKS
JACKSON        PTCLDY    52  43  71 CALM      30.17S
CODY           MOCLDY    59  45  58 S5        30.07S
GREYBULL       MOCLDY    59  46  62 S3        29.99S
6HR MIN TEMP:  59; 6HR MAX TEMP:  84; 6HR PCP: TRACE;

WORLAND        PTCLDY    59  46  62 CALM      29.99F
6HR MIN TEMP:  58; 6HR MAX TEMP:  82;

SHERIDAN       MOCLDY    57  46  66 SW5       29.98S
6HR MIN TEMP:  55; 6HR MAX TEMP:  78;

BUFFALO        PTCLDY    59  38  45 SW3       30.06S
6HR MIN TEMP:  59; 6HR MAX TEMP:  72;

GILLETTE       MOCLDY    56  40  55 S6        30.01F
6HR MIN TEMP:  50; 6HR MAX TEMP:  75;

HULETT         FAIR      54  37  54 MISG      30.02
NEWCASTLE      FAIR      55  36  47 N7        30.03

$$
WYZ014>020-022>026-101>103-170700-
CENTRAL WYOMING

CITY           SKY/WX    TMP DP  RH WIND       PRES   REMARKS
BIG PINEY      PTCLDY    52  39  61 S7        30.23S
6HR MIN TEMP:  50; 6HR MAX TEMP:  77;

PINEDALE       MOCLDY    54  34  47 CALM      30.24R
DUBOIS         FAIR      46  41  81 NW8       30.23S
LANDER         MOCLDY    61  41  47 E5        30.12F
6HR MIN TEMP:  60; 6HR MAX TEMP:  82; 6HR PCP: TRACE;

RIVERTON       MOCLDY    66  41  40 N6        30.11F
6HR MIN TEMP:  64; 6HR MAX TEMP:  83;

CASPER         LGT RAIN  68  34  28 NE8       30.12R
6HR MIN TEMP:  57; 6HR MAX TEMP:  82; 6HR PCP: TRACE;

DOUGLAS        PTCLDY    58  37  45 N6        30.08S
6HR MIN TEMP:  58; 6HR MAX TEMP:  82;


$$
WYZ021-027>030-104>119-170700-
SOUTHERN WYOMING

CITY           SKY/WX    TMP DP  RH WIND       PRES   REMARKS
EVANSTON       CLEAR     59  37  44 SE9       30.22S
6HR MIN TEMP:  59; 6HR MAX TEMP:  78;

KEMMERER       CLEAR    N/A N/A N/A N7        30.24S
FORT BRIDGER   FAIR      58  40  51 S9        30.24S
ROCK SPRINGS   CLEAR     62  36  37 S3        30.20
6HR MIN TEMP:  61; 6HR MAX TEMP:  74;

DIXON          MOCLDY    60  40  47 E8        30.23F
RAWLINS        PTCLDY    61  34  36 W6        30.21R
6HR MIN TEMP:  61; 6HR MAX TEMP:  76;

SARATOGA       FAIR      55  37  50 SE5       30.24R
LARAMIE        MOCLDY    52  36  54 SE7       30.24S
6HR MIN TEMP:  51; 6HR MAX TEMP:  74;

CHEYENNE       MOCLDY    64  36  35 SW9       30.16S
6HR MIN TEMP:  58; 6HR MAX TEMP:  80; 6HR PCP: TRACE;

TORRINGTON     PTCLDY    57  44  62 SE7       30.00F
6HR MIN TEMP:  54; 6HR MAX TEMP:  80;

PINE BLUFFS    FAIR      52  36  54 CALM      30.11S

$$



USA.gov is the U.S. government's official web portal to all federal, state and local government web resources and services.